CZ-4C DEB

Satellite information

Favourite Embed

Satellite Type and Status

DEBRISIN ORBIT

Key statistics

Satellite CZ-4C DEB at a glance.

Uptime

5519

Days in orbit

Revolutions

≈ 13.8

Per day

Orbit

SSO

Sun Synchronous Orbit

Inclination

98.8

Latest

Satellite identification and parameters

Extended collection of information and parameters for CZ-4C DEB.

Object identification

Identified? True

Debris? True

Object name: CZ-4C DEB

International designator: 2010-059G

Object number (NORAD): 38297

Object ID (CCSDS): 38297

Country: PEOPLES REPUBLIC OF CHINA (PRC)

Current information (Y/N): Y

RCS size: SMALL

Orbital parameters

Period: 104.488 minutes

Inclination: 98.764 deg

SMA: 7348.59 km

Apoapsis: 1144.471 km

Periapsis: 796.439 km

RAAN: 257.4555 deg

Eccentricy: 0.0236802

Argument of periapsis: 182.0558 deg

Mean anomaly: 177.9644 deg

Mean motion: 13.78150867 rev/day

Mean motion (dot): 0.00000447 rev/day2

B* drag term: 0.00039194 1/REarth

Two-line elements (TLE)

Creation date: Dec. 10, 2025, 10:36 p.m.

Reference frame: TEME

Reference center: EARTH

Epoch: Dec. 10, 2025, 2:13 p.m. UTC

TLE line 0: 0 CZ-4C DEB

TLE line 1: 1 38297U 10059G 25344.59293250 .00000447 00000-0 39194-3 0 9991

TLE line 2: 2 38297 98.7640 257.4555 0236802 182.0558 177.9644 13.78150867752253

Live tracking on map

Real-time ground track for satellite CZ-4C DEB.

In-orbit conjunctions

A list of the most updated potential collisions computed for object CZ-4C DEB.

Target Orbit TCA Probability of collision Miss distance Type
COSMOS 755 LEO 2025-05-25 22:04:03 0.0001848168 876.0 (m) PAYLOAD

Associated space launch

CZ-4C DEB was lifted into orbit during the mission ‘Long March 4C | Feng Yun-3B’, on board a Long March 4C space rocket.

The launch took place on Nov. 4, 2010, 6:37 p.m. from Launch Complex 7.

For more information about the launch, click the button.

Launch to space Long March 4C | Feng Yun-3B
Long March 4C | Feng Yun-3B

Agency: N/A

Status: Launch Successful

Launch date: Nov. 4, 2010, 6:37 p.m. UTC

Rocket: Long March 4C

Launch pad: Launch Complex 7

Location: Taiyuan Satellite Launch Center, People's Republic of China

...

Latest news about this satellite

There are no fresh news available about this satellite. Check back as we update our databases every day.


Newsletter sign-up

Weekly statistics, charts and insights to help you stay on top of the space industry.